{"data":{"norad_id":62618,"epoch":"2026-09-22T18:57:24.456960Z","epoch_age_seconds":120282,"freshness":"FRESH","line1":"1 62618U 25009K   26265.78986640  .03659356  24193-5  19891-2 0  9999","line2":"2 62618  97.3771   2.1328 0013638 283.0855  76.8911 16.19495993 94828","mean_motion":16.19495993,"eccentricity":0.0013638,"inclination_deg":97.3771,"raan_deg":2.1328,"arg_perigee_deg":283.0855,"mean_anomaly_deg":76.8911,"bstar":0.0019891,"rev_number":9482,"period_min":88.916552200447,"perigee_km":211.9208607858,"apogee_km":229.92045044726,"semimajor_km":6599.0576556165,"source":"CELESTRAK","updated_at":"2026-09-23T09:00:21.529595Z"}}